Voltar ao catálogo

ONEWEB-0273

AtivoComunicaçõesPO
NORAD 48991·PAYLOAD·🇬🇧 United Kingdom

Lançado Jul 1, 2021 de Vostochny Cosmodrome

Loading…

Próximas Passagens (próximas 24 horas)

TLE

AtualizadoSource: CelesTrak SupGP

Época: Sep 14, 2026, 16:06 UTC

1 48991C 21060AA  26257.67101111  .00001044  00000+0  27343-2 0  2576
2 48991  87.9136 211.0132 0002061  75.9922 319.2252 13.16589616    11

Acompanhe ONEWEB-0273 em tempo real com AllMySat

Download on the App Store